Weather History for Ketchikan, AK

Change the Weather History Date:

Wednesday, November 6, 2013

  Actual Average Record
Temperature  
Mean Temperature 47 °F -  
Max Temperature 50 °F 46 °F 63 °F (1962)
Min Temperature 44 °F 35 °F 19 °F (1973)
Degree Days  
Heating Degree Days 18    
Moisture  
Dew Point 42 °F    
Average Humidity 88    
Maximum Humidity 93    
Minimum Humidity 77    
Precipitation  
Precipitation 0.43 in - - ()
Sea Level Pressure  
Sea Level Pressure 29.99 in    
Wind  
Wind Speed 9 mph (SE)    
Max Wind Speed 15 mph    
Max Gust Speed 18 mph    
Visibility 9 miles    
Events Rain    
Averages and records for this station are not official NWS values.
T = Trace of Precipitation, MM = Missing Value Source: NWS Daily Summary

Daily Weather History Graph

Daily Weather History Graph

Search for Another Location

Airport:

Trip Planner

Search our weather history database for the weather conditions in past years. The results will help you decide how hot, cold, wet, or windy it might be!

Date:

Astronomy

Nov. 06, 2013 Rise Set
Actual Time 7:02 AM AKST 3:57 PM AKST
Civil Twilight 6:23 AM AKST 4:37 PM AKST
Nautical Twilight 5:39 AM AKST 5:20 PM AKST
Astronomical Twilight 4:56 AM AKST 6:03 PM AKST
Moon 10:39 AM AKST (11/6) 6:55 PM AKST (11/6)
Length of Visible Light 10h 13m
Length of Day
8h 54m
Waxing Crescent, 15% of the Moon is Illuminated
Nov 6
Waxing Crescent
Nov 9
First Quarter
Nov 17
Full
Nov 25
Last Quarter
Dec 2
New

Hourly Weather History & Observations

Time (AKST) Temp. Windchill Dew Point Humidity Pressure Visibility Wind Dir Wind Speed Gust Speed Precip Events Conditions
12:53 AM 45.0 °F 39.7 °F 43.0 °F 93% 29.94 in 9.0 mi SE 10.4 mph - 0.01 in Rain Light Rain
1:04 AM 44.6 °F 39.2 °F 42.8 °F 93% 29.94 in 10.0 mi SE 10.4 mph - 0.00 in Rain Light Rain
1:53 AM 45.0 °F 39.7 °F 43.0 °F 93% 29.94 in 7.0 mi SE 10.4 mph - 0.03 in Rain Light Rain
2:01 AM 44.6 °F 38.4 °F 42.8 °F 93% 29.94 in 8.0 mi SE 12.7 mph - 0.00 in Rain Light Rain
2:15 AM 44.6 °F 39.7 °F 42.8 °F 93% 29.94 in 10.0 mi SE 9.2 mph - 0.00 in Rain Light Rain
2:30 AM 46.4 °F 41.1 °F 42.8 °F 87% 29.94 in 10.0 mi SE 11.5 mph - 0.01 in Rain Light Rain
3:15 AM 44.6 °F 40.7 °F 39.2 °F 81% 29.95 in 6.0 mi SE 6.9 mph - 0.08 in Rain Rain
3:53 AM 44.1 °F 40.1 °F 41.0 °F 89% 29.96 in 10.0 mi ESE 6.9 mph - 0.10 in   Overcast
4:53 AM 45.0 °F 42.6 °F 42.1 °F 90% 29.98 in 7.0 mi SE 4.6 mph - 0.15 in Rain Rain
5:22 AM 44.6 °F 41.4 °F 42.8 °F 93% 29.97 in 10.0 mi SE 5.8 mph - 0.01 in   Overcast
5:53 AM 45.0 °F 41.8 °F 42.1 °F 90% 29.98 in 10.0 mi SE 5.8 mph - 0.01 in Rain Light Rain
6:02 AM 44.6 °F 40.7 °F 42.8 °F 93% 29.98 in 10.0 mi ESE 6.9 mph - 0.00 in Rain Light Rain
6:53 AM 45.0 °F 39.7 °F 41.0 °F 86% 29.99 in 10.0 mi ESE 10.4 mph - 0.02 in   Mostly Cloudy
7:53 AM 46.0 °F 41.9 °F 43.0 °F 89% 30.01 in 10.0 mi SSE 8.1 mph - 0.00 in   Overcast
8:53 AM 46.9 °F - 44.1 °F 90% 30.02 in 10.0 mi SSE 10.4 mph - 0.01 in Rain Light Rain
9:53 AM 48.0 °F - 43.0 °F 83% 30.03 in 10.0 mi SE 11.5 mph - 0.01 in   Overcast
10:53 AM 48.0 °F - 44.1 °F 86% 30.05 in 10.0 mi SE 12.7 mph - 0.00 in   Overcast
11:53 AM 50.0 °F - 43.0 °F 77% 30.04 in 10.0 mi SSE 9.2 mph - N/A   Overcast
12:53 PM 50.0 °F - 44.1 °F 80% 30.04 in 10.0 mi SE 15.0 mph - N/A   Overcast
1:53 PM 48.9 °F - 43.0 °F 80% 30.04 in 10.0 mi SE 15.0 mph - N/A   Mostly Cloudy
2:53 PM 48.0 °F - 43.0 °F 83% 30.04 in 10.0 mi SE 10.4 mph - N/A   Mostly Cloudy
3:53 PM 46.9 °F - 43.0 °F 86% 30.03 in 7.0 mi South 3.5 mph - 0.01 in Rain Light Rain
4:53 PM 46.0 °F 43.9 °F 43.0 °F 89% 30.03 in 10.0 mi South 4.6 mph - 0.00 in   Overcast
5:53 PM 45.0 °F 40.6 °F 43.0 °F 93% 30.02 in 10.0 mi SSE 8.1 mph - 0.03 in Rain Light Rain
6:53 PM 46.0 °F 44.8 °F 41.0 °F 83% 30.02 in 8.0 mi Variable 3.5 mph 18.4 mph 0.03 in Rain Light Rain
7:53 PM 44.1 °F - 42.1 °F 93% 30.02 in 10.0 mi Calm Calm - 0.02 in Rain Light Rain
8:53 PM 45.0 °F 41.2 °F 39.9 °F 82% 30.01 in 10.0 mi SSE 6.9 mph - 0.00 in   Overcast
9:53 PM 44.1 °F 41.5 °F 41.0 °F 89% 30.01 in 10.0 mi SSW 4.6 mph - N/A   Overcast
10:53 PM 44.1 °F 42.5 °F 41.0 °F 89% 29.99 in 10.0 mi South 3.5 mph - N/A   Overcast
11:53 PM 44.1 °F 41.5 °F 41.0 °F 89% 29.97 in 10.0 mi South 4.6 mph - N/A   Overcast